Year,Month,Day,Hour,Minute,Value (Times are PST for temperature in C)
2015,06,27,00,00,15.60
2015,06,27,00,01,15.60
2015,06,27,00,02,15.60
2015,06,27,00,03,15.60
2015,06,27,00,04,15.60
2015,06,27,00,05,15.70
2015,06,27,00,06,15.70
2015,06,27,00,07,15.80
2015,06,27,00,08,16.00
2015,06,27,00,09,16.10
2015,06,27,00,10,16.30
2015,06,27,00,11,16.50
2015,06,27,00,12,16.70
2015,06,27,00,13,16.80
2015,06,27,00,14,17.00
2015,06,27,00,15,17.10
2015,06,27,00,16,17.20
2015,06,27,00,17,17.30
2015,06,27,00,18,17.40
2015,06,27,00,19,17.40
2015,06,27,00,20,17.50
2015,06,27,00,21,17.60
2015,06,27,00,22,17.60
2015,06,27,00,23,17.70
2015,06,27,00,24,17.70
2015,06,27,00,25,17.70
2015,06,27,00,26,17.70
2015,06,27,00,27,17.70
2015,06,27,00,28,17.70
2015,06,27,00,29,17.80
2015,06,27,00,30,17.80
2015,06,27,00,31,17.80
2015,06,27,00,32,17.90
2015,06,27,00,33,17.90
2015,06,27,00,34,17.90
2015,06,27,00,35,17.90
2015,06,27,00,36,17.90
2015,06,27,00,37,17.90
2015,06,27,00,38,17.90
2015,06,27,00,39,17.90
2015,06,27,00,40,17.90
2015,06,27,00,41,17.90
2015,06,27,00,42,17.90
2015,06,27,00,43,17.90
2015,06,27,00,44,17.90
2015,06,27,00,45,17.90
2015,06,27,00,46,17.90
2015,06,27,00,47,17.90
2015,06,27,00,48,17.90
2015,06,27,00,49,17.90
2015,06,27,00,50,17.90
2015,06,27,00,51,17.90
2015,06,27,00,52,17.80
2015,06,27,00,53,17.80
2015,06,27,00,54,17.80
2015,06,27,00,55,17.90
2015,06,27,00,56,17.90
2015,06,27,00,57,17.90
2015,06,27,00,58,17.90
2015,06,27,00,59,17.90
2015,06,27,01,00,17.90
2015,06,27,01,01,17.90
2015,06,27,01,02,17.90
2015,06,27,01,03,17.90
2015,06,27,01,04,17.90
2015,06,27,01,05,17.90
2015,06,27,01,06,17.90
2015,06,27,01,07,17.80
2015,06,27,01,08,17.80
2015,06,27,01,09,17.90
2015,06,27,01,10,17.90
2015,06,27,01,11,17.80
2015,06,27,01,12,17.80
2015,06,27,01,13,17.80
2015,06,27,01,14,17.80
2015,06,27,01,15,17.80
2015,06,27,01,16,17.70
2015,06,27,01,17,17.70
2015,06,27,01,18,17.70
2015,06,27,01,19,17.70
2015,06,27,01,20,17.70
2015,06,27,01,21,17.70
2015,06,27,01,22,17.70
2015,06,27,01,23,17.70
2015,06,27,01,24,17.70
2015,06,27,01,25,17.70
2015,06,27,01,26,17.70
2015,06,27,01,27,17.70
2015,06,27,01,28,17.70
2015,06,27,01,29,17.80
2015,06,27,01,30,17.80
2015,06,27,01,31,17.80
2015,06,27,01,32,17.70
2015,06,27,01,33,17.70
2015,06,27,01,34,17.70
2015,06,27,01,35,17.70
2015,06,27,01,36,17.70
2015,06,27,01,37,17.70
2015,06,27,01,38,17.60
2015,06,27,01,39,17.60
2015,06,27,01,40,17.60
2015,06,27,01,41,17.60
2015,06,27,01,42,17.60
2015,06,27,01,43,17.60
2015,06,27,01,44,17.60
2015,06,27,01,45,17.60
2015,06,27,01,46,17.60
2015,06,27,01,47,17.60
2015,06,27,01,48,17.60
2015,06,27,01,49,17.60
2015,06,27,01,50,17.60
2015,06,27,01,51,17.50
2015,06,27,01,52,17.50
2015,06,27,01,53,17.50
2015,06,27,01,54,17.50
2015,06,27,01,55,17.50
2015,06,27,01,56,17.50
2015,06,27,01,57,17.50
2015,06,27,01,58,17.50
2015,06,27,01,59,17.50
2015,06,27,02,00,17.60
2015,06,27,02,01,17.50
2015,06,27,02,02,17.50
2015,06,27,02,03,17.50
2015,06,27,02,04,17.50
2015,06,27,02,05,17.50
2015,06,27,02,06,17.50
2015,06,27,02,07,17.50
2015,06,27,02,08,17.50
2015,06,27,02,09,17.40
2015,06,27,02,10,17.40
2015,06,27,02,11,17.40
2015,06,27,02,12,17.40
2015,06,27,02,13,17.40
2015,06,27,02,14,17.40
2015,06,27,02,15,17.40
2015,06,27,02,16,17.40
2015,06,27,02,17,17.30
2015,06,27,02,18,17.30
2015,06,27,02,19,17.30
2015,06,27,02,20,17.30
2015,06,27,02,21,17.30
2015,06,27,02,22,17.30
2015,06,27,02,23,17.30
2015,06,27,02,24,17.30
2015,06,27,02,25,17.30
2015,06,27,02,26,17.30
2015,06,27,02,27,17.30
2015,06,27,02,28,17.30
2015,06,27,02,29,17.30
2015,06,27,02,30,17.30
2015,06,27,02,31,17.30
2015,06,27,02,32,17.30
2015,06,27,02,33,17.30
2015,06,27,02,34,17.30
2015,06,27,02,35,17.30
2015,06,27,02,36,17.30
2015,06,27,02,37,17.30
2015,06,27,02,38,17.30
2015,06,27,02,39,17.30
2015,06,27,02,40,17.30
2015,06,27,02,41,17.30
2015,06,27,02,42,17.20
2015,06,27,02,43,17.20
2015,06,27,02,44,17.20
2015,06,27,02,45,17.20
2015,06,27,02,46,17.20
2015,06,27,02,47,17.20
2015,06,27,02,48,17.20
2015,06,27,02,49,17.20
2015,06,27,02,50,17.30
2015,06,27,02,51,17.30
2015,06,27,02,52,17.30
2015,06,27,02,53,17.30
2015,06,27,02,54,17.30
2015,06,27,02,55,17.30
2015,06,27,02,56,17.30
2015,06,27,02,57,17.30
2015,06,27,02,58,17.20
2015,06,27,02,59,17.20
2015,06,27,03,00,17.20
2015,06,27,03,01,17.20
2015,06,27,03,02,17.20
2015,06,27,03,03,17.20
2015,06,27,03,04,17.20
2015,06,27,03,05,17.20
2015,06,27,03,06,17.20
2015,06,27,03,07,17.20
2015,06,27,03,08,17.20
2015,06,27,03,09,17.20
2015,06,27,03,10,17.20
2015,06,27,03,11,17.20
2015,06,27,03,12,17.20
2015,06,27,03,13,17.20
2015,06,27,03,14,17.20
2015,06,27,03,15,17.20
2015,06,27,03,16,17.20
2015,06,27,03,17,17.20
2015,06,27,03,18,17.20
2015,06,27,03,19,17.20
2015,06,27,03,20,17.20
2015,06,27,03,21,17.10
2015,06,27,03,22,17.10
2015,06,27,03,23,17.10
2015,06,27,03,24,17.10
2015,06,27,03,25,17.10
2015,06,27,03,26,17.10
2015,06,27,03,27,17.00
2015,06,27,03,28,17.00
2015,06,27,03,29,16.90
2015,06,27,03,30,16.90
2015,06,27,03,31,16.90
2015,06,27,03,32,16.90
2015,06,27,03,33,16.90
2015,06,27,03,34,16.90
2015,06,27,03,35,16.90
2015,06,27,03,36,16.90
2015,06,27,03,37,16.90
2015,06,27,03,38,16.80
2015,06,27,03,39,16.80
2015,06,27,03,40,16.80
2015,06,27,03,41,16.80
2015,06,27,03,42,16.80
2015,06,27,03,43,16.80
2015,06,27,03,44,16.80
2015,06,27,03,45,16.80
2015,06,27,03,46,16.80
2015,06,27,03,47,16.90
2015,06,27,03,48,16.80
2015,06,27,03,49,16.80
2015,06,27,03,50,16.80
2015,06,27,03,51,16.80
2015,06,27,03,52,16.80
2015,06,27,03,53,16.80
2015,06,27,03,54,16.80
2015,06,27,03,55,16.70
2015,06,27,03,56,16.70
2015,06,27,03,57,16.70
2015,06,27,03,58,16.70
2015,06,27,03,59,16.70
2015,06,27,04,00,16.70
2015,06,27,04,01,16.70
2015,06,27,04,02,16.70
2015,06,27,04,03,16.70
2015,06,27,04,04,16.70
2015,06,27,04,05,16.80
2015,06,27,04,06,16.80
2015,06,27,04,07,16.80
2015,06,27,04,08,16.80
2015,06,27,04,09,16.80
2015,06,27,04,10,16.80
2015,06,27,04,11,16.80
2015,06,27,04,12,16.80
2015,06,27,04,13,16.80
2015,06,27,04,14,16.80
2015,06,27,04,15,16.80
2015,06,27,04,16,16.80
2015,06,27,04,17,16.80
2015,06,27,04,18,16.80
2015,06,27,04,19,16.80
2015,06,27,04,20,16.80
2015,06,27,04,21,16.80
2015,06,27,04,22,16.80
2015,06,27,04,23,16.80
2015,06,27,04,24,16.80
2015,06,27,04,25,16.80
2015,06,27,04,26,16.80
2015,06,27,04,27,16.80
2015,06,27,04,28,16.80
2015,06,27,04,29,16.80
2015,06,27,04,30,16.80
2015,06,27,04,31,16.80
2015,06,27,04,32,16.80
2015,06,27,04,33,16.80
2015,06,27,04,34,16.70
2015,06,27,04,35,16.70
2015,06,27,04,36,16.70
2015,06,27,04,37,16.70
2015,06,27,04,38,16.70
2015,06,27,04,39,16.70
2015,06,27,04,40,16.70
2015,06,27,04,41,16.70
2015,06,27,04,42,16.70
2015,06,27,04,43,16.70
2015,06,27,04,44,16.70
2015,06,27,04,45,16.70
2015,06,27,04,46,16.70
2015,06,27,04,47,16.70
2015,06,27,04,48,16.60
2015,06,27,04,49,16.60
2015,06,27,04,50,16.60
2015,06,27,04,51,16.60
2015,06,27,04,52,16.60
2015,06,27,04,53,16.60
2015,06,27,04,54,16.60
2015,06,27,04,55,16.60
2015,06,27,04,56,16.60
2015,06,27,04,57,16.60
2015,06,27,04,58,16.60
2015,06,27,04,59,16.60
2015,06,27,05,00,16.60
2015,06,27,05,01,16.60
2015,06,27,05,02,16.60
2015,06,27,05,03,16.60
2015,06,27,05,04,16.60
2015,06,27,05,05,16.70
2015,06,27,05,06,16.70
2015,06,27,05,07,16.60
2015,06,27,05,08,16.60
2015,06,27,05,09,16.60
2015,06,27,05,10,16.60
2015,06,27,05,11,16.60
2015,06,27,05,12,16.60
2015,06,27,05,13,16.60
2015,06,27,05,14,16.60
2015,06,27,05,15,16.60
2015,06,27,05,16,16.60
2015,06,27,05,17,16.60
2015,06,27,05,18,16.60
2015,06,27,05,19,16.60
2015,06,27,05,20,16.60
2015,06,27,05,21,16.60
2015,06,27,05,22,16.50
2015,06,27,05,23,16.50
2015,06,27,05,24,16.50
2015,06,27,05,25,16.40
2015,06,27,05,26,16.40
2015,06,27,05,27,16.40
2015,06,27,05,28,16.40
2015,06,27,05,29,16.30
2015,06,27,05,30,16.30
2015,06,27,05,31,16.30
2015,06,27,05,32,16.30
2015,06,27,05,33,16.30
2015,06,27,05,34,16.30
2015,06,27,05,35,16.30
2015,06,27,05,36,16.30
2015,06,27,05,37,16.30
2015,06,27,05,38,16.30
2015,06,27,05,39,16.30
2015,06,27,05,40,16.30
2015,06,27,05,41,16.30
2015,06,27,05,42,16.30
2015,06,27,05,43,16.30
2015,06,27,05,44,16.30
2015,06,27,05,45,16.30
2015,06,27,05,46,16.30
2015,06,27,05,47,16.30
2015,06,27,05,48,16.30
2015,06,27,05,49,16.30
2015,06,27,05,50,16.20
2015,06,27,05,51,16.20
2015,06,27,05,52,16.20
2015,06,27,05,53,16.20
2015,06,27,05,54,16.30
2015,06,27,05,55,16.30
2015,06,27,05,56,16.30
2015,06,27,05,57,16.40
2015,06,27,05,58,16.30
2015,06,27,05,59,16.30
2015,06,27,06,00,16.30
2015,06,27,06,01,16.20
2015,06,27,06,02,16.20
2015,06,27,06,03,16.20
2015,06,27,06,04,16.20
2015,06,27,06,05,16.20
2015,06,27,06,06,16.20
2015,06,27,06,07,16.30
2015,06,27,06,08,16.30
2015,06,27,06,09,16.40
2015,06,27,06,10,16.40
2015,06,27,06,11,16.50
2015,06,27,06,12,16.50
2015,06,27,06,13,16.60
2015,06,27,06,14,16.60
2015,06,27,06,15,16.60
2015,06,27,06,16,16.60
2015,06,27,06,17,16.60
2015,06,27,06,18,16.60
2015,06,27,06,19,16.60
2015,06,27,06,20,16.60
2015,06,27,06,21,16.60
2015,06,27,06,22,16.60
2015,06,27,06,23,16.60
2015,06,27,06,24,16.60
2015,06,27,06,25,16.60
2015,06,27,06,26,16.60
2015,06,27,06,27,16.60
2015,06,27,06,28,16.60
2015,06,27,06,29,16.60
2015,06,27,06,30,16.60
2015,06,27,06,31,16.60
2015,06,27,06,32,16.60
2015,06,27,06,33,16.60
2015,06,27,06,34,16.60
2015,06,27,06,35,16.60
2015,06,27,06,36,16.60
2015,06,27,06,37,16.50
2015,06,27,06,38,16.50
2015,06,27,06,39,16.50
2015,06,27,06,40,16.50
2015,06,27,06,41,16.50
2015,06,27,06,42,16.50
2015,06,27,06,43,16.60
2015,06,27,06,44,16.60
2015,06,27,06,45,16.60
2015,06,27,06,46,16.60
2015,06,27,06,47,16.60
2015,06,27,06,48,16.60
2015,06,27,06,49,16.60
2015,06,27,06,50,16.60
2015,06,27,06,51,16.60
2015,06,27,06,52,16.60
2015,06,27,06,53,16.60
2015,06,27,06,54,16.60
2015,06,27,06,55,16.60
2015,06,27,06,56,16.60
2015,06,27,06,57,16.60
2015,06,27,06,58,16.60
2015,06,27,06,59,16.60
2015,06,27,07,00,16.60
2015,06,27,07,01,16.60
2015,06,27,07,02,16.60
2015,06,27,07,03,16.60
2015,06,27,07,04,16.60
2015,06,27,07,05,16.60
2015,06,27,07,06,16.60
2015,06,27,07,07,16.60
2015,06,27,07,08,16.60
2015,06,27,07,09,16.60
2015,06,27,07,10,16.60
2015,06,27,07,11,16.60
2015,06,27,07,12,16.70
2015,06,27,07,13,16.70
2015,06,27,07,14,16.70
2015,06,27,07,15,16.80
2015,06,27,07,16,16.80
2015,06,27,07,17,16.80
2015,06,27,07,18,16.80
2015,06,27,07,19,16.80
2015,06,27,07,20,16.80
2015,06,27,07,21,16.80
2015,06,27,07,22,16.80
2015,06,27,07,23,16.90
2015,06,27,07,24,16.90
2015,06,27,07,25,17.00
2015,06,27,07,26,17.10
2015,06,27,07,27,17.10
2015,06,27,07,28,17.20
2015,06,27,07,29,17.20
2015,06,27,07,30,17.30
2015,06,27,07,31,17.30
2015,06,27,07,32,17.30
2015,06,27,07,33,17.40
2015,06,27,07,34,17.40
2015,06,27,07,35,17.40
2015,06,27,07,36,17.30
2015,06,27,07,37,17.30
2015,06,27,07,38,17.40
2015,06,27,07,39,17.50
2015,06,27,07,40,17.50
2015,06,27,07,41,17.60
2015,06,27,07,42,17.60
2015,06,27,07,43,17.60
2015,06,27,07,44,17.60
2015,06,27,07,45,17.60
2015,06,27,07,46,17.60
2015,06,27,07,47,17.70
2015,06,27,07,48,17.70
2015,06,27,07,49,17.70
2015,06,27,07,50,17.70
2015,06,27,07,51,17.60
2015,06,27,07,52,17.60
2015,06,27,07,53,17.60
2015,06,27,07,54,17.60
2015,06,27,07,55,17.60
2015,06,27,07,56,17.50
2015,06,27,07,57,17.50
2015,06,27,07,58,17.50
2015,06,27,07,59,17.50
2015,06,27,08,00,17.60
2015,06,27,08,01,17.60
2015,06,27,08,02,17.60
2015,06,27,08,03,17.70
2015,06,27,08,04,17.70
2015,06,27,08,05,17.70
2015,06,27,08,06,17.80
2015,06,27,08,07,17.80
2015,06,27,08,08,17.80
2015,06,27,08,09,17.80
2015,06,27,08,10,17.80
2015,06,27,08,11,17.80
2015,06,27,08,12,17.80
2015,06,27,08,13,17.80
2015,06,27,08,14,17.80
2015,06,27,08,15,17.80
2015,06,27,08,16,17.80
2015,06,27,08,17,17.80
2015,06,27,08,18,17.80
2015,06,27,08,19,17.80
2015,06,27,08,20,17.80
2015,06,27,08,21,17.90
2015,06,27,08,22,17.90
2015,06,27,08,23,17.90
2015,06,27,08,24,18.00
2015,06,27,08,25,18.00
2015,06,27,08,26,18.00
2015,06,27,08,27,18.00
2015,06,27,08,28,18.00
2015,06,27,08,29,18.10
2015,06,27,08,30,18.10
2015,06,27,08,31,18.10
2015,06,27,08,32,18.20
2015,06,27,08,33,18.20
2015,06,27,08,34,18.20
2015,06,27,08,35,18.30
2015,06,27,08,36,18.30
2015,06,27,08,37,18.40
2015,06,27,08,38,18.40
2015,06,27,08,39,18.50
2015,06,27,08,40,18.60
2015,06,27,08,41,18.60
2015,06,27,08,42,18.60
2015,06,27,08,43,18.70
2015,06,27,08,44,18.70
2015,06,27,08,45,18.70
2015,06,27,08,46,18.70
2015,06,27,08,47,18.70
2015,06,27,08,48,18.70
2015,06,27,08,49,18.80
2015,06,27,08,50,18.80
2015,06,27,08,51,18.80
2015,06,27,08,52,18.80
2015,06,27,08,53,18.80
2015,06,27,08,54,18.80
2015,06,27,08,55,18.80
2015,06,27,08,56,18.90
2015,06,27,08,57,18.90
2015,06,27,08,58,18.90
2015,06,27,08,59,18.90
2015,06,27,09,00,18.90
2015,06,27,09,01,18.80
2015,06,27,09,02,18.80
2015,06,27,09,03,18.80
2015,06,27,09,04,18.90
2015,06,27,09,05,18.90
2015,06,27,09,06,18.90
2015,06,27,09,07,18.80
2015,06,27,09,08,18.80
2015,06,27,09,09,18.80
2015,06,27,09,10,18.80
2015,06,27,09,11,18.80
2015,06,27,09,12,18.90
2015,06,27,09,13,19.00
2015,06,27,09,14,19.00
2015,06,27,09,15,19.10
2015,06,27,09,16,19.10
2015,06,27,09,17,19.20
2015,06,27,09,18,19.20
2015,06,27,09,19,19.30
2015,06,27,09,20,19.40
2015,06,27,09,21,19.50
2015,06,27,09,22,19.60
2015,06,27,09,23,19.60
2015,06,27,09,24,19.60
2015,06,27,09,25,19.60
2015,06,27,09,26,19.60
2015,06,27,09,27,19.70
2015,06,27,09,28,19.70
2015,06,27,09,29,19.70
2015,06,27,09,30,19.80
2015,06,27,09,31,19.90
2015,06,27,09,32,20.00
2015,06,27,09,33,20.10
2015,06,27,09,34,20.20
2015,06,27,09,35,20.20
2015,06,27,09,36,20.20
2015,06,27,09,37,20.20
2015,06,27,09,38,20.20
2015,06,27,09,39,20.20
2015,06,27,09,40,20.30
2015,06,27,09,41,20.30
2015,06,27,09,42,20.40
2015,06,27,09,43,20.40
2015,06,27,09,44,20.40
2015,06,27,09,45,20.40
2015,06,27,09,46,20.40
2015,06,27,09,47,20.40
2015,06,27,09,48,20.50
2015,06,27,09,49,20.50
2015,06,27,09,50,20.50
2015,06,27,09,51,20.50
2015,06,27,09,52,20.60
2015,06,27,09,53,20.60
2015,06,27,09,54,20.70
2015,06,27,09,55,20.70
2015,06,27,09,56,20.80
2015,06,27,09,57,20.80
2015,06,27,09,58,20.80
2015,06,27,09,59,20.80
2015,06,27,10,00,20.80
2015,06,27,10,01,20.90
2015,06,27,10,02,20.90
2015,06,27,10,03,20.90
2015,06,27,10,04,21.00
2015,06,27,10,05,21.00
2015,06,27,10,06,21.10
2015,06,27,10,07,21.10
2015,06,27,10,08,21.10
2015,06,27,10,09,21.10
2015,06,27,10,10,21.10
2015,06,27,10,11,21.10
2015,06,27,10,12,21.10
2015,06,27,10,13,21.00
2015,06,27,10,14,21.00
2015,06,27,10,15,21.00
2015,06,27,10,16,21.00
2015,06,27,10,17,21.00
2015,06,27,10,18,21.10
2015,06,27,10,19,21.20
2015,06,27,10,20,21.30
2015,06,27,10,21,21.40
2015,06,27,10,22,21.40
2015,06,27,10,23,21.40
2015,06,27,10,24,21.40
2015,06,27,10,25,21.40
2015,06,27,10,26,21.50
2015,06,27,10,27,21.60
2015,06,27,10,28,21.70
2015,06,27,10,29,21.70
2015,06,27,10,30,21.90
2015,06,27,10,31,22.10
2015,06,27,10,32,22.30
2015,06,27,10,33,22.40
2015,06,27,10,34,22.60
2015,06,27,10,35,22.70
2015,06,27,10,36,22.80
2015,06,27,10,37,22.90
2015,06,27,10,38,22.90
2015,06,27,10,39,22.90
2015,06,27,10,40,22.90
2015,06,27,10,41,22.90
2015,06,27,10,42,22.90
2015,06,27,10,43,23.00
2015,06,27,10,44,23.00
2015,06,27,10,45,23.10
2015,06,27,10,46,23.10
2015,06,27,10,47,23.20
2015,06,27,10,48,23.20
2015,06,27,10,49,23.30
2015,06,27,10,50,23.30
2015,06,27,10,51,23.30
2015,06,27,10,52,23.40
2015,06,27,10,53,23.50
2015,06,27,10,54,23.50
2015,06,27,10,55,23.60
2015,06,27,10,56,23.70
2015,06,27,10,57,23.70
2015,06,27,10,58,23.70
2015,06,27,10,59,23.80
2015,06,27,11,00,23.80
2015,06,27,11,01,23.80
2015,06,27,11,02,23.80
2015,06,27,11,03,23.90
2015,06,27,11,04,23.90
2015,06,27,11,05,24.00
2015,06,27,11,06,24.10
2015,06,27,11,07,24.10
2015,06,27,11,08,24.20
2015,06,27,11,09,24.20
2015,06,27,11,10,24.30
2015,06,27,11,11,24.40
2015,06,27,11,12,24.40
2015,06,27,11,13,24.40
2015,06,27,11,14,24.40
2015,06,27,11,15,24.50
2015,06,27,11,16,24.50
2015,06,27,11,17,24.60
2015,06,27,11,18,24.60
2015,06,27,11,19,24.70
2015,06,27,11,20,24.70
2015,06,27,11,21,24.70
2015,06,27,11,22,24.70
2015,06,27,11,23,24.70
2015,06,27,11,24,24.70
2015,06,27,11,25,24.80
2015,06,27,11,26,24.80
2015,06,27,11,27,24.90
2015,06,27,11,28,25.00
2015,06,27,11,29,25.10
2015,06,27,11,30,25.20
2015,06,27,11,31,25.30
2015,06,27,11,32,25.40
2015,06,27,11,33,25.50
2015,06,27,11,34,25.60
2015,06,27,11,35,25.60
2015,06,27,11,36,25.60
2015,06,27,11,37,25.60
2015,06,27,11,38,25.60
2015,06,27,11,39,25.70
2015,06,27,11,40,25.70
2015,06,27,11,41,25.70
2015,06,27,11,42,25.70
2015,06,27,11,43,25.80
2015,06,27,11,44,25.90
2015,06,27,11,45,25.90
2015,06,27,11,46,26.00
2015,06,27,11,47,26.00
2015,06,27,11,48,26.10
2015,06,27,11,49,26.20
2015,06,27,11,50,26.30
2015,06,27,11,51,26.40
2015,06,27,11,52,26.40
2015,06,27,11,53,26.50
2015,06,27,11,54,26.50
2015,06,27,11,55,26.50
2015,06,27,11,56,26.60
2015,06,27,11,57,26.60
2015,06,27,11,58,26.70
2015,06,27,11,59,26.70
2015,06,27,12,00,26.70
2015,06,27,12,01,26.80
2015,06,27,12,02,26.80
2015,06,27,12,03,26.80
2015,06,27,12,04,26.90
2015,06,27,12,05,27.00
2015,06,27,12,06,27.10
2015,06,27,12,07,27.10
2015,06,27,12,08,27.20
2015,06,27,12,09,27.30
2015,06,27,12,10,27.30
2015,06,27,12,11,27.40
2015,06,27,12,12,27.60
2015,06,27,12,13,27.70
2015,06,27,12,14,27.80
2015,06,27,12,15,27.90
2015,06,27,12,16,27.90
2015,06,27,12,17,27.90
2015,06,27,12,18,27.90
2015,06,27,12,19,28.00
2015,06,27,12,20,28.10
2015,06,27,12,21,28.20
2015,06,27,12,22,28.30
2015,06,27,12,23,28.30
2015,06,27,12,24,28.40
2015,06,27,12,25,28.40
2015,06,27,12,26,28.40
2015,06,27,12,27,28.40
2015,06,27,12,28,28.50
2015,06,27,12,29,28.50
2015,06,27,12,30,28.40
2015,06,27,12,31,28.40
2015,06,27,12,32,28.40
2015,06,27,12,33,28.50
2015,06,27,12,34,28.60
2015,06,27,12,35,28.60
2015,06,27,12,36,28.60
2015,06,27,12,37,28.60
2015,06,27,12,38,28.70
2015,06,27,12,39,28.70
2015,06,27,12,40,28.80
2015,06,27,12,41,28.80
2015,06,27,12,42,28.80
2015,06,27,12,43,28.90
2015,06,27,12,44,29.00
2015,06,27,12,45,29.00
2015,06,27,12,46,29.00
2015,06,27,12,47,29.00
2015,06,27,12,48,29.00
2015,06,27,12,49,29.00
2015,06,27,12,50,29.10
2015,06,27,12,51,29.20
2015,06,27,12,52,29.30
2015,06,27,12,53,29.30
2015,06,27,12,54,29.40
2015,06,27,12,55,29.50
2015,06,27,12,56,29.60
2015,06,27,12,57,29.70
2015,06,27,12,58,29.80
2015,06,27,12,59,29.80
2015,06,27,13,00,29.90
2015,06,27,13,01,30.00
2015,06,27,13,02,30.00
2015,06,27,13,03,30.00
2015,06,27,13,04,30.00
2015,06,27,13,05,30.00
2015,06,27,13,06,30.10
2015,06,27,13,07,30.20
2015,06,27,13,08,30.30
2015,06,27,13,09,30.30
2015,06,27,13,10,30.40
2015,06,27,13,11,30.40
2015,06,27,13,12,30.40
2015,06,27,13,13,30.40
2015,06,27,13,14,30.30
2015,06,27,13,15,30.30
2015,06,27,13,16,30.30
2015,06,27,13,17,30.30
2015,06,27,13,18,30.40
2015,06,27,13,19,30.40
2015,06,27,13,20,30.60
2015,06,27,13,21,30.70
2015,06,27,13,22,30.80
2015,06,27,13,23,30.80
2015,06,27,13,24,30.80
2015,06,27,13,25,30.80
2015,06,27,13,26,30.80
2015,06,27,13,27,30.80
2015,06,27,13,28,30.80
2015,06,27,13,29,30.80
2015,06,27,13,30,30.80
2015,06,27,13,31,30.80
2015,06,27,13,32,30.80
2015,06,27,13,33,30.80
2015,06,27,13,34,30.90
2015,06,27,13,35,31.00
2015,06,27,13,36,31.10
2015,06,27,13,37,31.20
2015,06,27,13,38,31.20
2015,06,27,13,39,31.30
2015,06,27,13,40,31.30
2015,06,27,13,41,31.30
2015,06,27,13,42,31.30
2015,06,27,13,43,31.30
2015,06,27,13,44,31.30
2015,06,27,13,45,31.40
2015,06,27,13,46,31.40
2015,06,27,13,47,31.30
2015,06,27,13,48,31.30
2015,06,27,13,49,31.30
2015,06,27,13,50,31.20
2015,06,27,13,51,31.10
2015,06,27,13,52,31.10
2015,06,27,13,53,31.00
2015,06,27,13,54,30.90
2015,06,27,13,55,30.80
2015,06,27,13,56,30.70
2015,06,27,13,57,30.60
2015,06,27,13,58,30.60
2015,06,27,13,59,30.50
2015,06,27,14,00,30.40
2015,06,27,14,01,30.50
2015,06,27,14,02,30.50
2015,06,27,14,03,30.40
2015,06,27,14,04,30.40
2015,06,27,14,05,30.40
2015,06,27,14,06,30.40
2015,06,27,14,07,30.40
2015,06,27,14,08,30.30
2015,06,27,14,09,30.30
2015,06,27,14,10,30.30
2015,06,27,14,11,30.30
2015,06,27,14,12,30.40
2015,06,27,14,13,30.40
2015,06,27,14,14,30.40
2015,06,27,14,15,30.40
2015,06,27,14,16,30.30
2015,06,27,14,17,30.20
2015,06,27,14,18,30.10
2015,06,27,14,19,29.90
2015,06,27,14,20,29.70
2015,06,27,14,21,29.50
2015,06,27,14,22,29.20
2015,06,27,14,23,29.10
2015,06,27,14,24,28.90
2015,06,27,14,25,28.80
2015,06,27,14,26,28.60
2015,06,27,14,27,28.50
2015,06,27,14,28,28.50
2015,06,27,14,29,28.40
2015,06,27,14,30,28.40
2015,06,27,14,31,28.40
2015,06,27,14,32,28.50
2015,06,27,14,33,28.60
2015,06,27,14,34,28.70
2015,06,27,14,35,28.90
2015,06,27,14,36,29.00
2015,06,27,14,37,29.10
2015,06,27,14,38,29.20
2015,06,27,14,39,29.20
2015,06,27,14,40,29.20
2015,06,27,14,41,29.20
2015,06,27,14,42,29.10
2015,06,27,14,43,28.90
2015,06,27,14,44,28.80
2015,06,27,14,45,28.60
2015,06,27,14,46,28.40
2015,06,27,14,47,28.30
2015,06,27,14,48,28.20
2015,06,27,14,49,28.10
2015,06,27,14,50,28.00
2015,06,27,14,51,27.90
2015,06,27,14,52,27.80
2015,06,27,14,53,27.80
2015,06,27,14,54,27.70
2015,06,27,14,55,27.70
2015,06,27,14,56,27.60
2015,06,27,14,57,27.60
2015,06,27,14,58,27.50
2015,06,27,14,59,27.50
2015,06,27,15,00,27.50
2015,06,27,15,01,27.50
2015,06,27,15,02,27.50
2015,06,27,15,03,27.60
2015,06,27,15,04,27.60
2015,06,27,15,05,27.70
2015,06,27,15,06,27.80
2015,06,27,15,07,27.90
2015,06,27,15,08,28.10
2015,06,27,15,09,28.30
2015,06,27,15,10,28.50
2015,06,27,15,11,28.70
2015,06,27,15,12,28.90
2015,06,27,15,13,29.00
2015,06,27,15,14,29.10
2015,06,27,15,15,29.20
2015,06,27,15,16,29.20
2015,06,27,15,17,29.20
2015,06,27,15,18,29.20
2015,06,27,15,19,29.20
2015,06,27,15,20,29.20
2015,06,27,15,21,29.20
2015,06,27,15,22,29.20
2015,06,27,15,23,29.10
2015,06,27,15,24,29.10
2015,06,27,15,25,29.10
2015,06,27,15,26,29.10
2015,06,27,15,27,29.10
2015,06,27,15,28,29.20
2015,06,27,15,29,29.20
2015,06,27,15,30,29.20
2015,06,27,15,31,29.10
2015,06,27,15,32,29.00
2015,06,27,15,33,29.00
2015,06,27,15,34,28.90
2015,06,27,15,35,29.00
2015,06,27,15,36,29.10
2015,06,27,15,37,29.20
2015,06,27,15,38,29.20
2015,06,27,15,39,29.30
2015,06,27,15,40,29.30
2015,06,27,15,41,29.40
2015,06,27,15,42,29.40
2015,06,27,15,43,29.40
2015,06,27,15,44,29.30
2015,06,27,15,45,29.30
2015,06,27,15,46,29.30
2015,06,27,15,47,29.30
2015,06,27,15,48,29.30
2015,06,27,15,49,29.20
2015,06,27,15,50,29.10
2015,06,27,15,51,29.10
2015,06,27,15,52,29.00
2015,06,27,15,53,28.90
2015,06,27,15,54,28.80
2015,06,27,15,55,28.80
2015,06,27,15,56,28.80
2015,06,27,15,57,28.90
2015,06,27,15,58,29.00
2015,06,27,15,59,29.10
2015,06,27,16,00,29.20
2015,06,27,16,01,29.20
2015,06,27,16,02,29.20
2015,06,27,16,03,29.10
2015,06,27,16,04,29.10
2015,06,27,16,05,29.10
2015,06,27,16,06,29.10
2015,06,27,16,07,29.10
2015,06,27,16,08,29.10
2015,06,27,16,09,29.20
2015,06,27,16,10,29.20
2015,06,27,16,11,29.30
2015,06,27,16,12,29.30
2015,06,27,16,13,29.30
2015,06,27,16,14,29.30
2015,06,27,16,15,29.20
2015,06,27,16,16,29.10
2015,06,27,16,17,29.00
2015,06,27,16,18,28.90
2015,06,27,16,19,28.80
2015,06,27,16,20,28.70
2015,06,27,16,21,28.60
2015,06,27,16,22,28.60
2015,06,27,16,23,28.60
2015,06,27,16,24,28.60
2015,06,27,16,25,28.60
2015,06,27,16,26,28.60
2015,06,27,16,27,28.70
2015,06,27,16,28,28.70
2015,06,27,16,29,28.70
2015,06,27,16,30,28.80
2015,06,27,16,31,28.80
2015,06,27,16,32,28.80
2015,06,27,16,33,28.90
2015,06,27,16,34,28.90
2015,06,27,16,35,28.90
2015,06,27,16,36,28.90
2015,06,27,16,37,28.80
2015,06,27,16,38,28.80
2015,06,27,16,39,28.70
2015,06,27,16,40,28.70
2015,06,27,16,41,28.70
2015,06,27,16,42,28.70
2015,06,27,16,43,28.70
2015,06,27,16,44,28.70
2015,06,27,16,45,28.60
2015,06,27,16,46,28.60
2015,06,27,16,47,28.60
2015,06,27,16,48,28.50
2015,06,27,16,49,28.50
2015,06,27,16,50,28.50
2015,06,27,16,51,28.50
2015,06,27,16,52,28.60
2015,06,27,16,53,28.70
2015,06,27,16,54,28.80
2015,06,27,16,55,28.80
2015,06,27,16,56,28.90
2015,06,27,16,57,29.00
2015,06,27,16,58,29.00
2015,06,27,16,59,29.10
2015,06,27,17,00,29.10
2015,06,27,17,01,29.10
2015,06,27,17,02,29.20
2015,06,27,17,03,29.20
2015,06,27,17,04,29.20
2015,06,27,17,05,29.20
2015,06,27,17,06,29.20
2015,06,27,17,07,29.20
2015,06,27,17,08,29.20
2015,06,27,17,09,29.20
2015,06,27,17,10,29.20
2015,06,27,17,11,29.10
2015,06,27,17,12,29.00
2015,06,27,17,13,28.90
2015,06,27,17,14,28.90
2015,06,27,17,15,28.80
2015,06,27,17,16,28.80
2015,06,27,17,17,28.80
2015,06,27,17,18,28.70
2015,06,27,17,19,28.70